GLD1794 TVSA-TLPL

Flight info

Callsign GLD1794
Flight time 0h 18m
Altitude 5000
Route BNE
Aircraft C172/L-SFG/C

Departure

Time 2026-05-03 20:26
Airport Argyle International Airport (TVSA)

Arrival

Time 2026-05-03 20:44
Airport Hewanorra International Airport (TLPL)
Time Latitude Longitude Altitude Speed Heading
2026-05-03 20:23 13.16080 -61.15087 77 ft 7 kts 126°
2026-05-03 20:23 13.16056 -61.15054 78 ft 6 kts 124°
2026-05-03 20:24 13.16031 -61.15008 78 ft 12 kts 117°
2026-05-03 20:24 13.15990 -61.14912 80 ft 11 kts 114°
2026-05-03 20:24 13.15997 -61.14872 82 ft 0 kts 19°
2026-05-03 20:24 13.16107 -61.14830 74 ft 38 kts 21°
2026-05-03 20:25 13.16467 -61.14699 114 ft 63 kts 23°
2026-05-03 20:25 13.16917 -61.14531 199 ft 75 kts 22°
2026-05-03 20:25 13.17424 -61.14310 294 ft 86 kts 26°
2026-05-03 20:25 13.18003 -61.14049 389 ft 95 kts 23°
2026-05-03 20:26 13.18601 -61.13767 492 ft 95 kts 26°
2026-05-03 20:26 13.19205 -61.13500 588 ft 93 kts 27°
2026-05-03 20:26 13.19804 -61.13241 683 ft 92 kts 26°
2026-05-03 20:26 13.20403 -61.12980 783 ft 97 kts 26°
2026-05-03 20:27 13.21049 -61.12717 878 ft 102 kts 26°
2026-05-03 20:27 13.21710 -61.12466 974 ft 103 kts 27°
2026-05-03 20:27 13.22408 -61.12187 997 ft 112 kts 26°
2026-05-03 20:27 13.23158 -61.11891 1006 ft 118 kts 26°
2026-05-03 20:28 13.23949 -61.11603 1008 ft 124 kts 25°
2026-05-03 20:28 13.24766 -61.11271 1009 ft 127 kts 26°
2026-05-03 20:28 13.25591 -61.10922 1010 ft 129 kts 27°
2026-05-03 20:28 13.26441 -61.10589 1010 ft 132 kts 27°
2026-05-03 20:29 13.27294 -61.10249 1005 ft 130 kts 27°
2026-05-03 20:29 13.28119 -61.09905 1004 ft 129 kts 27°
2026-05-03 20:29 13.28945 -61.09563 1003 ft 127 kts 26°
2026-05-03 20:29 13.29765 -61.09224 1004 ft 127 kts 27°
2026-05-03 20:30 13.30588 -61.08898 1001 ft 127 kts 27°
2026-05-03 20:30 13.31409 -61.08591 1003 ft 125 kts 26°
2026-05-03 20:30 13.32225 -61.08266 1005 ft 127 kts 27°
2026-05-03 20:30 13.33042 -61.07931 998 ft 124 kts 27°
2026-05-03 20:31 13.33827 -61.07623 1000 ft 120 kts 26°
2026-05-03 20:31 13.34614 -61.07314 1005 ft 121 kts 27°
2026-05-03 20:31 13.35408 -61.07010 1008 ft 122 kts 27°
2026-05-03 20:31 13.36198 -61.06694 1011 ft 121 kts 27°
2026-05-03 20:32 13.36987 -61.06400 1007 ft 120 kts 28°
2026-05-03 20:32 13.37781 -61.06129 1010 ft 120 kts 27°
2026-05-03 20:32 13.38569 -61.05843 1006 ft 119 kts 26°
2026-05-03 20:32 13.39325 -61.05547 1013 ft 118 kts 27°
2026-05-03 20:33 13.40108 -61.05248 1018 ft 123 kts 24°
2026-05-03 20:33 13.40949 -61.05030 1011 ft 124 kts 18°
2026-05-03 20:33 13.41792 -61.04865 1013 ft 123 kts 17°
2026-05-03 20:33 13.42640 -61.04704 1017 ft 126 kts 17°
2026-05-03 20:34 13.43518 -61.04527 1009 ft 130 kts 18°
2026-05-03 20:34 13.44409 -61.04352 1011 ft 129 kts 17°
2026-05-03 20:34 13.45259 -61.04176 995 ft 125 kts 17°
2026-05-03 20:34 13.46128 -61.04000 997 ft 130 kts 18°
2026-05-03 20:35 13.47030 -61.03831 999 ft 132 kts 17°
2026-05-03 20:35 13.47918 -61.03651 998 ft 128 kts 18°
2026-05-03 20:35 13.48793 -61.03490 1007 ft 130 kts 18°
2026-05-03 20:35 13.49699 -61.03326 1009 ft 133 kts 17°
2026-05-03 20:36 13.50594 -61.03144 1003 ft 129 kts 18°
2026-05-03 20:36 13.51484 -61.02969 1005 ft 132 kts 18°
2026-05-03 20:36 13.52385 -61.02780 1002 ft 133 kts 17°
2026-05-03 20:36 13.53276 -61.02583 1000 ft 124 kts 18°
2026-05-03 20:37 13.54120 -61.02405 1004 ft 127 kts 19°
2026-05-03 20:37 13.55001 -61.02229 1003 ft 129 kts 19°
2026-05-03 20:37 13.55869 -61.02014 1000 ft 127 kts 20°
2026-05-03 20:37 13.56715 -61.01795 1001 ft 124 kts 21°
2026-05-03 20:38 13.57544 -61.01602 1001 ft 122 kts 20°
2026-05-03 20:38 13.58369 -61.01411 1002 ft 121 kts 20°
2026-05-03 20:38 13.59197 -61.01217 1002 ft 122 kts 18°
2026-05-03 20:38 13.60008 -61.01009 997 ft 117 kts 19°
2026-05-03 20:39 13.60795 -61.00812 998 ft 116 kts 20°
2026-05-03 20:39 13.61601 -61.00616 996 ft 121 kts 21°
2026-05-03 20:39 13.62397 -61.00433 1000 ft 116 kts 20°
2026-05-03 20:39 13.63176 -61.00271 1005 ft 114 kts 19°
2026-05-03 20:40 13.63975 -61.00079 1006 ft 120 kts 20°
2026-05-03 20:40 13.64783 -60.99863 1001 ft 119 kts 20°
2026-05-03 20:40 13.65574 -60.99645 1000 ft 117 kts 21°
2026-05-03 20:40 13.66369 -60.99442 1004 ft 119 kts 20°
2026-05-03 20:41 13.67166 -60.99240 1009 ft 119 kts 20°
2026-05-03 20:41 13.67909 -60.99068 997 ft 99 kts 20°
2026-05-03 20:41 13.68529 -60.98951 998 ft 86 kts 19°
2026-05-03 20:41 13.69109 -60.98825 1000 ft 87 kts 20°
2026-05-03 20:42 13.69700 -60.98697 998 ft 88 kts 22°
2026-05-03 20:42 13.70294 -60.98574 996 ft 85 kts 22°
2026-05-03 20:42 13.70865 -60.98482 996 ft 83 kts 21°
2026-05-03 20:42 13.71438 -60.98395 885 ft 74 kts 21°
2026-05-03 20:43 13.71938 -60.98300 728 ft 69 kts 21°
2026-05-03 20:43 13.72365 -60.98210 494 ft 61 kts 31°
2026-05-03 20:43 13.72733 -60.97984 408 ft 62 kts 46°
2026-05-03 20:43 13.73018 -60.97677 327 ft 55 kts 58°
2026-05-03 20:44 13.73211 -60.97336 227 ft 58 kts 67°
2026-05-03 20:44 13.73319 -60.96938 121 ft 58 kts 83°
2026-05-03 20:44 13.73338 -60.96534 37 ft 54 kts 90°
2026-05-03 20:44 13.73336 -60.96195 13 ft 41 kts 90°
2026-05-03 20:45 13.73336 -60.95949 12 ft 26 kts 87°
2026-05-03 20:45 13.73338 -60.95795 13 ft 18 kts 90°
2026-05-03 20:45 13.73338 -60.95689 13 ft 13 kts 90°
2026-05-03 20:45 13.73338 -60.95600 12 ft 13 kts 91°
2026-05-03 20:46 13.73338 -60.95502 12 ft 15 kts 89°
2026-05-03 20:46 13.73338 -60.95392 12 ft 16 kts 90°
2026-05-03 20:46 13.73338 -60.95289 12 ft 13 kts 89°
2026-05-03 20:46 13.73339 -60.95202 11 ft 12 kts 86°
2026-05-03 20:47 13.73383 -60.95157 11 ft 9 kts
2026-05-03 20:47 13.73449 -60.95156 11 ft 10 kts
2026-05-03 20:47 13.73519 -60.95154 11 ft 10 kts 359°
2026-05-03 20:47 13.73584 -60.95144 11 ft 8 kts 45°
2026-05-03 20:48 13.73581 -60.95117 11 ft 0 kts 147°